Location: Unspecified
(40.7945°N, 111.1337°W)
Time: 16:28:11
(UTC-06:00)

ISS - Pass Details

Date: 25 March 2019
Orbit: 408 x 410 km, 51.6° (Epoch: 26 April)

Event Time Altitude Azimuth Distance (km) Brightness Sun altitude
Rises 20:53:46 0° 267° (W) 2,325 1.5 -14.2°
Reaches altitude 10° 20:56:07 10° 282° (WNW) 1,466 0.4 -14.6°
Maximum altitude 20:58:49 23° 338° (NNW) 917 -1.6 -15.1°
Drops below altitude 10° 21:01:36 10° 34° (NE) 1,492 -1.1 -15.6°
Enters shadow 21:01:54 - 37° (NE) 1,591 -1.0 -15.7°
